sat.trackr.live / text

‹ back to catalog

STARLINK-3982

NORAD 52614 · 2022-052S

PAYLOAD ACTIVE UNKNOWN

§ Identity

Operator
Country
US
Launch date
2022-05-14
Launch site
AFETR
Launch vehicle
Mass (kg)
RCS (m²)

Purposes: comms

External: N2YO · Heavens-Above · Gunter

§ Orbital elements

Epoch: 2026-09-20T01:11:43.162368Z

Period
92.35 min
Inclination
53.2074°
Eccentricity
0.0001382
Mean motion
15.59306075 rev/d
Perigee alt
388.7 km
Apogee alt
390.6 km
Semi-major
6,767.8 km
B*
8.4648e-4
RAAN
15.5948°
Arg perigee
226.7976°
Mean anomaly
133.2923°
Rev number
24,176

§ Raw data

STARLINK-39821 52614U 22052S   26263.04980512  .00067917  00000+0  84648-3 0  99992 52614  53.2074  15.5948 0001382 226.7976 133.2923 15.59306075241760

JSON: /api/v1/satellites/52614 · /tle

For live sub-satellite position, see the globe view (requires WebGL).

§ Visibility from observer

Set your observer location to see the next 7 days of passes ≥ 10°. The values pass through the URL so the page stays shareable.

No JS? Fill the form by hand. The geolocation button needs JavaScript.